ACA409 CYUL-CYYZ

Flight info

Callsign ACA409
Flight time N/A
Altitude 34000
Route BOBKI DCT MELTI DCT TORNI RAGID6
Aircraft A321/M-SDE3FGHIRWY/LB1

Departure

Time 2026-04-30 15:11
Airport Montreal / Pierre Elliott Trudeau International Airport (CYUL)

Arrival

Time N/A
Airport Toronto Pearson International Airport (CYYZ)
Time Latitude Longitude Altitude Speed Heading
2026-04-30 14:31 45.45891 -73.74439 105 ft 0 kts 177°
2026-04-30 14:59 45.45907 -73.74440 104 ft 4 kts 177°
2026-04-30 15:00 45.45973 -73.74471 104 ft 4 kts 103°
2026-04-30 15:00 45.45969 -73.74527 102 ft 0 kts 74°
2026-04-30 15:03 45.45985 -73.74461 103 ft 13 kts 67°
2026-04-30 15:03 45.46007 -73.74232 101 ft 17 kts 42°
2026-04-30 15:04 45.46201 -73.73977 105 ft 17 kts 42°
2026-04-30 15:04 45.46416 -73.73695 108 ft 12 kts 42°
2026-04-30 15:05 45.46608 -73.73443 109 ft 13 kts 42°
2026-04-30 15:06 45.46840 -73.73138 114 ft 25 kts 43°
2026-04-30 15:06 45.47068 -73.72840 116 ft 20 kts 43°
2026-04-30 15:07 45.47252 -73.72599 117 ft 17 kts 43°
2026-04-30 15:07 45.47421 -73.72377 116 ft 20 kts 42°
2026-04-30 15:08 45.47686 -73.72029 119 ft 26 kts 42°
2026-04-30 15:08 45.47760 -73.71705 118 ft 19 kts 126°
2026-04-30 15:09 45.47647 -73.71677 121 ft 0 kts 223°
2026-04-30 15:09 45.47595 -73.71746 124 ft 41 kts 223°
2026-04-30 15:10 45.46507 -73.73165 141 ft 156 kts 225°
2026-04-30 15:11 45.43162 -73.77958 2342 ft 178 kts 241°
2026-04-30 15:11 45.42343 -73.81399 3166 ft 199 kts 264°
2026-04-30 15:12 45.42775 -73.88150 4693 ft 246 kts 274°
2026-04-30 15:13 45.42960 -73.93108 6262 ft 255 kts 269°
2026-04-30 15:14 45.42817 -74.03446 9284 ft 269 kts 265°
2026-04-30 15:14 45.42576 -74.11907 10499 ft 314 kts 264°
2026-04-30 15:16 45.42091 -74.28765 13228 ft 355 kts 263°
2026-04-30 15:17 45.41599 -74.43068 15722 ft 365 kts 257°
2026-04-30 15:18 45.38673 -74.60858 18576 ft 378 kts 251°
2026-04-30 15:19 45.36814 -74.71888 20076 ft 386 kts 251°